(331474) = 1994 PO14 = 1994 PU31 = 2005 QU85

Discovered at La Silla on 1994-08-10 by E. W. Elst.

Orbit

Orbit type: Main Belt

Note: WebGL enabled browser required.

epoch2023-09-13.0
epoch JD2460200.5
perihelion date2020-03-03.61969
perihelion JD2458912.11969
argument of perihelion (°)49.30407
ascending node (°)309.05710
inclination (°)5.14610
eccentricity0.2607109
perihelion distance (AU)1.7451133
Tisserand w.r.t. Jupiter3.5
ΔV w.r.t. Earth (km/sec)8.4
semimajor axis (AU)2.3605289
mean anomaly (°)350.13373
mean daily motion (°/day)0.27176270
aphelion distance (AU)2.976
period (years)3.63
P-vector [x]0.99721788
P-vector [y]-0.05505674
P-vector [z]0.05025186
Q-vector [x]0.02655804
Q-vector [y]0.89232318
Q-vector [z]0.45061515
absolute magnitude16.73
phase slope0.15
uncertainty0
referenceMPEC 2024-A48
observations used561
oppositions14
arc length (days)10710
first opposition used1994
last opposition used2023
residual rms (arc-secs)0.71
perturbers coarse indicatorM-v
perturbers precise indicator003Ek
first observation date used1994-08-10.0
last observation date used2023-12-06.0
computer nameMPCLINUX
JD of orbit computation2456760.699975
perihelion JD uncertainty (days)5.4191E-05
argument of perihelion uncertainty (°)6.7878E-05
ascending node uncertainty (°)6.5651E-05
inclination uncertainty (°)6.8388E-06
eccentricity uncertainty 6.9335E-08
perihelion distance uncertainty (AU)1.6873E-07
Minimum Orbit Intersection Distances (in AU)
for orbit epoch: 2460200.5, reference: E2024-A48
Mercury1.3811
Venus1.02811
Earth0.74556
Mars0.38227
Jupiter2.48473
Saturn6.42823
Uranus15.4907
Neptune27.6194

Observations

570 total observations over interval: 1994 08 10.29583 – 2023 12 06.155298
These data are available for download (format description).

Date (UT) J2000 RA J2000 Dec Magn Location Ref
1994 08 10.29583 22 57 48.30 -02 25 39.7 18.4   809 – European Southern Observatory, La Silla MPC 24347
1994 08 10.30764 22 57 47.92 -02 25 36.1   809 – European Southern Observatory, La Silla MPC 24347
1994 08 10.31944 22 57 47.53 -02 25 33.7   809 – European Southern Observatory, La Silla MPC 24347
1994 08 11.29931 22 57 21.07 -02 21 40.3   809 – European Southern Observatory, La Silla MPC 24347
1994 08 11.31111 22 57 20.70 -02 21 37.4   809 – European Southern Observatory, La Silla MPC 24347
1994 08 11.32292 22 57 20.33 -02 21 35.8   809 – European Southern Observatory, La Silla MPC 24347
1994 08 12.31667 22 56 51.70 -02 17 53.1 18.6   809 – European Southern Observatory, La Silla MPC 24518
1994 08 12.32847 22 56 51.17 -02 17 50.3   809 – European Southern Observatory, La Silla MPC 24518
1994 08 12.34028 22 56 50.79 -02 17 47.9   809 – European Southern Observatory, La Silla MPC 24518
1994 08 13.22986 22 56 23.86 -02 14 35.9   809 – European Southern Observatory, La Silla MPC 24518
1994 08 13.24167 22 56 23.32 -02 14 34.2   809 – European Southern Observatory, La Silla MPC 24518
1994 08 13.25347 22 56 22.89 -02 14 32.2   809 – European Southern Observatory, La Silla MPC 24518
1994 09 05.21250 22 38 56.89 -01 36 06.3 18.5   809 – European Southern Observatory, La Silla MPC 24864
1994 09 05.22569 22 38 56.10 -01 36 05.4   809 – European Southern Observatory, La Silla MPC 24864
1994 09 05.23889 22 38 55.32 -01 36 06.1   809 – European Southern Observatory, La Silla MPC 24864
1994 09 06.17222 22 38 07.44 -01 36 04.5   809 – European Southern Observatory, La Silla MPC 24864
1994 09 06.18542 22 38 06.67 -01 36 04.8   809 – European Southern Observatory, La Silla MPC 24864
1994 09 06.19861 22 38 05.91 -01 36 04.9   809 – European Southern Observatory, La Silla MPC 24864
2003 01 29.19699 08 40 34.09 +18 31 01.0 20.9 V 291 – LPL/Spacewatch II MPS 150574
2003 01 29.22194 08 40 32.35 +18 31 04.7 21.0 V 291 – LPL/Spacewatch II MPS 150574
2003 01 29.24716 08 40 30.58 +18 31 08.4 21.0 V 291 – LPL/Spacewatch II MPS 150574
2003 01 30.24446 08 39 22.79 +18 33 31.4 20.2   644 – Palomar Mountain/NEAT MPS 150574
2003 01 30.32075 08 39 17.46 +18 33 42.3 20.3   644 – Palomar Mountain/NEAT MPS 150574
2003 01 30.39396 08 39 12.37 +18 33 52.9 20.2   644 – Palomar Mountain/NEAT MPS 150574
2005 07 17.37656 00 37 58.36 +07 54 34.0 19.2 R 699 – Lowell Observatory-LONEOS MPS 150574
2005 07 17.38217 00 37 58.86 +07 54 38.9   699 – Lowell Observatory-LONEOS MPS 150574
2005 07 17.38777 00 37 59.25 +07 54 43.7   699 – Lowell Observatory-LONEOS MPS 150574
2005 07 17.39325 00 37 59.68 +07 54 48.5   699 – Lowell Observatory-LONEOS MPS 150574
2005 08 03.40112 00 58 31.92 +11 36 31.8 19.4   704 – Lincoln Laboratory ETS, New Mexico MPS 150574
2005 08 03.41285 00 58 32.54 +11 36 41.2 18.9   704 – Lincoln Laboratory ETS, New Mexico MPS 150574
2005 08 03.42464 00 58 33.22 +11 36 49.5 18.9   704 – Lincoln Laboratory ETS, New Mexico MPS 150574
2005 08 30.36590 01 15 25.23 +16 14 41.4 18.2 R 699 – Lowell Observatory-LONEOS MPS 140339
2005 08 30.37177 01 15 25.32 +16 14 44.5 17.9 R 644 – Palomar Mountain/NEAT MPS 141166
2005 08 30.38865 01 15 25.39 +16 14 52.3   699 – Lowell Observatory-LONEOS MPS 140339
2005 08 30.39816 01 15 25.51 +16 14 57.3 17.9 R 644 – Palomar Mountain/NEAT MPS 141166
2005 08 30.41137 01 15 25.55 +16 15 03.2   699 – Lowell Observatory-LONEOS MPS 140339
2005 08 30.43069 01 15 25.71 +16 15 12.7 18.0 R 644 – Palomar Mountain/NEAT MPS 141166
2005 08 30.43414 01 15 25.63 +16 15 14.1   699 – Lowell Observatory-LONEOS MPS 140339
2005 08 31.28323 01 15 33.91 +16 21 51.3 18.1   704 – Lincoln Laboratory ETS, New Mexico MPS 140339
2005 08 31.29421 01 15 33.97 +16 21 56.2 18.7   704 – Lincoln Laboratory ETS, New Mexico MPS 140339
2005 08 31.30527 01 15 33.99 +16 22 01.1 18.3   704 – Lincoln Laboratory ETS, New Mexico MPS 140339
2005 08 31.31626 01 15 34.07 +16 22 06.8 18.5   704 – Lincoln Laboratory ETS, New Mexico MPS 140339
2005 08 31.32774 01 15 34.12 +16 22 12.6 18.5   704 – Lincoln Laboratory ETS, New Mexico MPS 140339
2005 09 12.29349 01 14 28.01 +17 36 34.2 17.7   704 – Lincoln Laboratory ETS, New Mexico MPS 150574
2005 09 12.30488 01 14 27.77 +17 36 37.2 18.4   704 – Lincoln Laboratory ETS, New Mexico MPS 150574
2005 09 12.31630 01 14 27.52 +17 36 41.1 18.5   704 – Lincoln Laboratory ETS, New Mexico MPS 150574
2005 09 12.32772 01 14 27.24 +17 36 43.8 18.4   704 – Lincoln Laboratory ETS, New Mexico MPS 150574
2005 09 12.33922 01 14 26.97 +17 36 47.7 18.6   704 – Lincoln Laboratory ETS, New Mexico MPS 150574
2005 09 18.27639 01 11 58.76 +17 59 07.4 17.5 R 644 – Palomar Mountain/NEAT MPS 146104
2005 09 18.30042 01 11 57.93 +17 59 11.8 17.4 R 644 – Palomar Mountain/NEAT MPS 146104
2005 09 18.32132 01 11 57.21 +17 59 15.5 17.4 R 644 – Palomar Mountain/NEAT MPS 146104
2005 09 23.43098 01 08 55.46 +18 09 58.8 18.0 V 703 – Catalina Sky Survey MPS 150574
2005 09 23.43907 01 08 55.10 +18 09 58.8 17.8 V 703 – Catalina Sky Survey MPS 150574
2005 09 23.44735 01 08 54.78 +18 09 59.5 17.8 V 703 – Catalina Sky Survey MPS 150574
2005 09 23.45552 01 08 54.42 +18 10 00.2 17.8 V 703 – Catalina Sky Survey MPS 150574
2005 10 01.33515 01 03 01.18 +18 10 46.4 17.7 V 703 – Catalina Sky Survey MPS 150574
2005 10 01.34436 01 03 00.68 +18 10 45.5 17.7 V 703 – Catalina Sky Survey MPS 150574
2005 10 01.35355 01 03 00.25 +18 10 45.1 17.6 V 703 – Catalina Sky Survey MPS 150574
2005 10 01.36274 01 02 59.71 +18 10 44.5 17.6 V 703 – Catalina Sky Survey MPS 150574
2005 10 03.26967 01 01 25.37 +18 08 08.0 17.4   704 – Lincoln Laboratory ETS, New Mexico MPS 150574
2005 10 03.28082 01 01 24.76 +18 08 06.9 17.8   704 – Lincoln Laboratory ETS, New Mexico MPS 150574
2005 10 03.29159 01 01 24.15 +18 08 05.9 18.0   704 – Lincoln Laboratory ETS, New Mexico MPS 150574
2005 10 03.30238 01 01 23.60 +18 08 05.1 18.0   704 – Lincoln Laboratory ETS, New Mexico MPS 150574
2005 10 08.25455 00 57 10.98 +17 56 42.5 17.5 V 703 – Catalina Sky Survey MPS 146104
2005 10 08.25994 00 57 10.69 +17 56 41.4 17.4 V 703 – Catalina Sky Survey MPS 146104
2005 10 08.26543 00 57 10.40 +17 56 40.2 17.5 V 703 – Catalina Sky Survey MPS 146104
2005 10 08.27093 00 57 10.04 +17 56 39.6 17.6 V 703 – Catalina Sky Survey MPS 146104
2005 10 10.27866 00 55 27.22 +17 50 20.9 17.3 V 703 – Catalina Sky Survey MPS 144054
2005 10 10.28796 00 55 26.61 +17 50 20.2 17.2 V 703 – Catalina Sky Survey MPS 144054
2005 10 10.29724 00 55 26.22 +17 50 18.7 17.1 V 703 – Catalina Sky Survey MPS 144054
2005 10 10.30651 00 55 25.75 +17 50 17.1 17.2 V 703 – Catalina Sky Survey MPS 144054
2005 10 12.25323 00 53 47.47 +17 43 18.8 17.4   704 – Lincoln Laboratory ETS, New Mexico MPS 146104
2005 10 12.26487 00 53 46.89 +17 43 16.1 17.7   704 – Lincoln Laboratory ETS, New Mexico MPS 146104
2005 10 12.27576 00 53 46.26 +17 43 13.2 18.0   704 – Lincoln Laboratory ETS, New Mexico MPS 146104
2005 10 12.28665 00 53 45.61 +17 43 11.7 18.8   704 – Lincoln Laboratory ETS, New Mexico MPS 146104
2005 10 12.29758 00 53 45.06 +17 43 08.8 17.2   704 – Lincoln Laboratory ETS, New Mexico MPS 146104
2005 10 13.32878 00 52 53.65 +17 39 10.5 17.1 V G96 – Mt. Lemmon Survey MPS 144054
2005 10 13.33534 00 52 53.29 +17 39 09.1 17.1 V G96 – Mt. Lemmon Survey MPS 144054
2005 10 13.34191 00 52 52.96 +17 39 07.3 17.0 V G96 – Mt. Lemmon Survey MPS 144054
2005 10 13.34855 00 52 52.60 +17 39 05.6 17.1 V G96 – Mt. Lemmon Survey MPS 144054
2005 10 23.15874 00 45 36.10 +16 53 45.2 17.3 R 644 – Palomar Mountain/NEAT MPS 146104
2005 10 23.18010 00 45 35.22 +16 53 38.9 17.3 R 644 – Palomar Mountain/NEAT MPS 146104
2005 10 23.20115 00 45 34.33 +16 53 32.6 17.4 R 644 – Palomar Mountain/NEAT MPS 146104
2005 11 03.20632 00 40 23.17 +15 57 06.4 18.0   704 – Lincoln Laboratory ETS, New Mexico MPS 149115
2005 11 03.21816 00 40 22.90 +15 57 02.1 18.4   704 – Lincoln Laboratory ETS, New Mexico MPS 149115
2005 11 03.22999 00 40 22.64 +15 56 58.3 18.9   704 – Lincoln Laboratory ETS, New Mexico MPS 149115
2005 11 03.24186 00 40 22.43 +15 56 54.1 18.7   704 – Lincoln Laboratory ETS, New Mexico MPS 149115
2005 11 03.25373 00 40 22.11 +15 56 51.5 18.9   704 – Lincoln Laboratory ETS, New Mexico MPS 149115
